Temp
19 19 18 18 17 17 17 17 18 18 18 18 18 18 19 18 18 18 18 17 16 15 14 14 13 13 12 12 12 11 11 11 11 10 10 10 10 10 10 11 11 11 11
19 19 19 18 18 18 18 18 18 18 18 18 18 18 19 18 18 18 17 17 16 15 14 14 13 13 12 12 11 11 11 11 10 10 10 10 10 10 10 10 10 10 11
20 20 19 19 19 18 18 18 18 18 18 18 18 18 18 18 18 18 17 17 16 15 14 14 13 13 12 12 12 11 11 10 10 10 10 10 10 10 10 10 10 10 10
20 20 20 19 19 19 19 19 19 19 19 18 18 18 18 18 18 17 17 16 16 15 14 13 13 13 13 12 12 11 11 10 10 10 10 10 10 9 10 10 10 10 10
20 20 20 20 19 19 19 19 19 19 19 18 18 18 18 18 17 17 17 16 15 15 14 14 13 13 12 12 12 12 11 10 10 10 10 9 9 9 9 10 10 10 10
20 20 20 20 20 19 19 19 19 19 19 18 18 18 18 17 17 17 16 16 15 15 14 14 13 13 13 12 12 12 11 10 10 10 9 9 9 9 9 9 10 10 10
20 20 20 20 19 19 19 19 18 18 18 18 18 17 17 17 17 17 16 16 16 15 14 14 14 13 12 12 11 11 11 10 9 9 9 9 9 9 9 9 9 9 10
20 20 20 20 19 19 19 19 18 18 18 18 17 14 12 14 16 16 16 16 15 15 15 14 13 13 12 12 11 10 10 9 9 9 9 8 8 8 8 9 9 9 9
19 19 19 19 19 19 19 19 19 18 17 17 17 16 10 11 12 15 15 15 15 15 14 14 13 12 12 12 11 10 10 9 9 9 8 8 8 8 8 8 8 9 9
19 19 19 18 18 19 19 19 18 18 17 16 15 17 17 15 11 11 13 13 14 14 14 13 13 12 12 11 11 10 9 8 8 8 8 7 7 8 8 8 8 8 8
19 19 19 19 17 17 17 17 17 16 16 15 15 15 14 14 13 11 10 10 12 12 12 12 12 12 10 10 10 9 8 8 6 6 6 7 7 7 7 7 7 7 7
18 18 18 18 17 16 16 17 16 16 16 16 15 14 14 14 12 10 9 8 9 9 9 10 10 9 9 9 8 6 6 5 4 4 4 4 5 5 6 6 6 6 6
18 18 18 18 17 17 17 17 16 15 15 15 14 14 14 13 13 12 11 7 6 5 6 6 6 7 7 5 5 4 5 6 4 3 3 4 5 5 4 4 4 5 5
16 17 17 16 16 15 15 14 14 14 14 15 14 14 13 12 12 12 12 9 5 3 3 3 4 5 4 5 3 4 3 3 2 3 2 3 3 3 3 3 3 3 3
14 15 15 15 15 15 14 14 13 13 13 13 13 13 12 11 10 9 9 9 9 5 4 2 3 3 3 2 3 3 2 1 1 1 1 2 2 3 3 3 3 3 2
12 13 13 13 12 12 13 12 12 12 12 12 11 11 11 9 8 7 7 7 7 6 5 3 1 1 1 2 1 1 1 1 0 1 1 2 2 2 2 2 2 2 2
10 11 11 11 10 9 9 9 9 9 9 9 9 8 8 6 6 5 5 5 5 5 4 0 1 1 1 1 1 1 1 1 1 1 1 1 1 1 1 1 1 1 1
9 9 9 9 8 8 7 7 7 7 7 7 6 5 5 4 4 3 3 4 4 3 3 0 -0 0 1 1 1 0 1 1 1 0 0 1 1 1 1 1 1 1 1
6 7 7 6 6 6 6 5 5 5 5 4 3 3 2 2 2 2 2 2 2 2 2 1 -0 -0 -0 0 -0 0 1 0 0 0 0 -0 -0 -0 -0 0 1 1 0
5 4 4 4 4 4 4 4 3 3 2 2 2 2 2 2 1 1 1 0 -0 0 0 -0 -0 0 0 0 0 0 0 -0 -0 -0 -0 -1 -1 -1 -1 -1 -1 -1 -1
2 2 2 2 2 2 2 2 2 1 1 1 0 -0 0 0 -0 -0 -0 -1 -1 -1 -1 -1 -0 -0 0 0 -0 -0 -0 -1 -1 -1 -1 -1 -0 -0 0 -0 -1 -1 -1
0 1 1 1 0 0 -0 1 2 1 1 0 -0 -1 -1 -1 -1 -2 -1 -2 -2 -2 -1 -1 -1 -1 -1 -1 -1 -1 -2 -2 -3 -2 -2 -2 -1 -0 -1 -1 -1 -1 -1
0 0 -0 -0 0 0 -0 0 1 0 0 -0 -1 -1 -1 -1 -2 -2 -3 -2 -2 -1 -1 -2 -2 -2 -2 -2 -2 -2 -2 -3 -3 -3 -3 -3 -2 -1 -1 -1 -1 -2 -2
-1 -1 -1 -1 -0 -1 -1 -1 -0 -0 -1 -1 -1 -2 -2 -2 -2 -2 -2 -2 -2 -2 -2 -2 -2 -2 -2 -2 -2 -3 -3 -3 -3 -3 -3 -4 -2 -2 -3 -1 -1 -1 -2
-2 -2 -2 -1 -1 -1 -1 -0 -0 -1 -1 -2 -2 -2 -2 -2 -2 -2 -2 -2 -2 -2 -2 -2 -2 -3 -2 -2 -2 -2 -3 -3 -4 -4 -4 -5 -4 -4 -4 -3 -2 -2 -3
-2 -2 -1 -1 -1 -1 -1 -1 -1 -1 -2 -2 -3 -3 -3 -3 -3 -3 -3 -3 -3 -3 -3 -3 -3 -3 -2 -2 -2 -2 -3 -3 -4 -4 -4 -4 -5 -5 -5 -4 -4 -5 -4
Height
835 837 839 841 842 844 844 846 846 848 849 850 850 851 852 853 853 853 854 855 855 856 856 857 857 859 859 859 859 859 859 860 860 860 860 860 861 863 863 863 863 863 863
834 835 837 839 841 842 843 844 845 847 848 849 850 851 851 851 851 852 853 854 854 855 855 855 855 857 858 858 858 858 858 859 860 860 860 860 860 862 862 862 863 863 863
831 834 835 836 837 839 841 842 843 845 846 848 849 850 851 851 850 850 850 851 852 853 854 854 855 855 856 857 858 857 857 857 857 858 858 858 859 860 861 861 862 862 862
830 831 832 833 834 836 838 839 840 842 843 844 846 847 848 848 849 848 847 849 849 849 851 852 852 853 855 855 855 856 855 855 856 857 858 858 858 858 859 860 860 860 860
827 828 830 831 833 834 835 836 837 838 839 840 842 843 844 845 846 846 846 845 845 846 846 848 849 850 852 853 854 855 855 853 854 855 856 858 858 858 859 859 859 860 860
822 824 825 827 829 830 832 833 834 835 835 837 839 840 841 842 843 843 843 843 842 843 844 844 845 847 848 850 852 853 852 852 853 853 854 855 857 857 858 858 858 859 859
817 819 820 822 824 825 826 829 831 832 832 835 837 837 837 837 837 837 839 839 839 838 838 839 841 843 844 846 848 850 851 851 850 851 852 853 854 856 856 856 857 857 858
812 813 814 816 818 820 822 823 825 826 828 831 832 835 837 834 831 830 832 833 833 833 833 834 834 837 841 842 843 846 848 848 848 848 849 850 852 853 854 854 854 854 854
807 808 810 812 813 815 816 817 818 820 820 823 824 826 834 831 826 822 823 824 827 829 830 830 832 833 836 839 841 841 842 844 845 846 847 847 848 850 851 852 853 853 852
803 804 806 807 809 810 811 812 813 813 815 816 819 819 817 818 823 823 819 819 823 826 828 829 829 830 831 834 838 841 844 844 845 847 847 846 845 846 847 849 849 849 850
798 800 801 802 803 805 807 809 810 810 810 812 812 814 816 815 817 819 819 816 817 820 824 826 826 827 829 829 831 836 842 844 845 844 848 848 846 843 844 845 846 846 846
793 794 795 797 799 801 802 803 804 804 806 806 806 807 808 810 811 814 816 816 817 818 819 820 822 825 826 827 831 832 832 841 845 841 842 842 844 841 839 841 842 842 842
789 790 791 792 794 796 798 799 800 801 801 800 801 800 801 803 803 805 809 812 813 815 815 817 818 817 817 829 822 833 828 826 837 834 840 841 843 838 834 835 837 838 837
785 786 788 789 791 793 794 796 796 796 797 796 796 796 796 796 798 800 802 805 813 815 816 814 816 813 821 813 824 827 826 830 830 830 834 839 837 832 832 830 833 834 833
784 785 786 787 788 790 791 792 793 793 793 793 792 791 791 791 794 796 799 800 801 807 810 810 812 812 813 818 818 822 825 827 827 827 829 831 832 829 829 828 829 828 828
783 783 783 784 785 786 788 790 791 791 791 791 791 791 791 791 792 794 796 799 800 802 804 806 809 811 813 813 819 820 821 823 824 824 824 826 827 826 826 825 825 824 823
782 782 782 783 783 785 787 788 788 789 790 790 790 790 791 791 792 794 794 796 800 801 802 805 807 808 811 811 815 818 818 821 821 821 821 823 824 824 822 821 820 820 818
782 783 782 783 784 785 786 787 788 788 791 790 789 790 792 793 794 795 797 796 797 801 803 805 806 809 810 812 814 814 818 819 820 820 819 820 820 820 819 817 816 815 814
785 783 783 784 785 785 786 786 788 787 789 790 790 791 794 796 798 798 799 801 800 801 802 806 809 810 811 813 815 814 815 818 818 817 817 816 817 816 814 813 811 810 810
786 786 788 787 787 788 788 789 788 790 790 792 793 794 796 798 799 801 802 804 806 804 803 806 807 812 810 813 813 812 815 815 815 816 814 812 811 810 809 808 807 805 803
789 790 790 791 791 791 792 792 791 793 793 795 796 799 800 801 802 803 805 806 807 809 809 808 812 810 811 812 812 812 812 813 813 811 808 808 806 806 805 802 800 798 797
792 793 793 796 797 796 797 796 795 796 797 798 800 802 802 803 805 806 806 807 808 809 809 809 810 810 812 812 811 811 811 811 811 808 804 804 803 800 798 797 795 794 792
794 797 799 801 801 802 801 800 799 800 800 803 803 804 805 806 807 807 808 809 809 808 807 809 810 811 810 809 810 810 810 810 809 808 804 797 797 795 794 791 789 788 787
800 803 804 804 805 805 803 802 802 803 803 805 805 806 807 808 808 809 810 809 808 809 808 809 809 809 809 809 809 809 809 808 805 803 803 798 794 790 787 784 782 782 781
805 806 807 807 806 806 805 805 805 805 806 807 807 808 809 810 811 811 809 808 808 807 807 808 808 808 807 807 808 807 806 804 801 800 799 797 792 788 781 778 778 778 778
808 809 809 809 808 807 808 808 806 807 806 807 808 809 810 810 810 810 808 807 807 807 807 806 806 805 805 804 804 804 803 802 802 798 797 795 792 790 782 774 774 773 771
Wind_Speed
22 16 15 14 18 16 15 13 11 13 13 12 13 12 12 12 11 11 11 10 10 12 12 11 10 10 10 9 9 9 9 9 9 9 9 9 9 8 8 9 9 9 9
21 16 16 15 13 14 13 13 11 12 14 12 13 13 15 15 13 12 11 12 13 14 13 12 12 12 11 10 10 9 9 9 8 8 8 8 7 6 7 7 7 7 7
22 18 18 21 17 15 14 15 17 15 17 18 16 16 15 16 15 15 13 15 16 16 15 14 13 13 13 12 11 10 10 9 8 7 6 6 5 5 5 5 5 5 5
21 20 20 23 20 19 18 19 18 19 18 19 18 17 19 19 18 18 18 16 18 18 18 17 16 15 14 14 13 12 11 9 8 6 5 4 4 4 3 3 3 3 3
23 22 23 23 22 23 22 23 22 22 21 21 20 20 18 20 18 19 20 20 20 20 19 19 20 18 18 16 14 13 11 10 9 6 5 3 3 2 1 0 1 2 2
24 27 27 26 25 23 26 25 25 23 25 23 19 20 20 20 21 21 21 23 22 22 21 20 22 22 21 19 16 15 13 10 9 7 6 4 4 3 2 2 3 3 4
26 28 29 29 27 28 27 29 27 27 26 21 18 18 18 21 24 26 26 24 26 25 25 25 23 23 23 22 19 17 15 13 10 8 7 6 5 3 3 3 4 5 7
28 30 31 32 32 30 30 28 32 28 27 24 16 4 2 9 24 29 28 30 28 27 29 28 26 25 24 24 24 19 17 14 11 9 8 7 5 4 4 5 6 7 8
21 26 31 35 34 35 33 33 33 36 30 30 31 15 2 5 2 17 36 34 33 30 31 30 27 25 24 24 25 25 22 16 12 11 9 7 6 4 6 7 8 9 9
30 28 25 24 29 33 34 35 35 37 34 28 29 35 28 5 4 3 9 25 32 29 29 29 28 26 24 23 23 21 18 15 11 8 8 7 5 5 6 8 10 11 12
17 16 17 20 25 26 26 30 28 28 30 29 29 22 28 21 11 3 4 4 19 25 24 29 28 25 24 25 23 19 16 12 8 5 6 6 6 6 8 10 12 13 13
18 19 18 16 16 16 23 24 24 21 27 30 29 31 27 13 19 7 3 3 2 2 17 21 23 22 23 22 17 18 14 8 4 3 7 9 13 11 10 11 13 15 15
11 10 12 16 17 17 16 19 22 24 26 27 30 33 35 32 23 24 16 3 2 6 8 12 15 23 20 16 21 18 18 23 23 17 16 14 16 13 11 14 15 16 17
2 5 9 10 11 9 10 12 15 18 20 23 26 27 29 32 32 29 22 13 1 2 6 5 13 18 16 18 20 26 21 22 23 21 13 18 19 15 15 14 15 17 17
5 4 4 5 5 6 12 11 12 12 13 16 19 19 22 21 21 19 17 15 12 4 6 11 11 19 21 24 23 25 24 20 18 16 16 20 18 16 16 16 17 17 18
3 2 2 3 5 5 7 11 12 13 12 14 11 10 10 10 11 11 12 12 11 7 3 13 17 10 21 20 20 18 16 16 17 16 14 14 16 15 16 16 17 18 17
1 1 1 2 3 2 1 2 3 4 6 6 5 5 5 6 6 6 6 6 7 8 4 3 7 11 10 11 10 10 11 16 15 12 12 12 14 16 15 16 16 16 16
6 5 4 3 3 3 2 2 1 1 2 1 0 0 0 1 2 3 4 7 8 4 2 4 5 8 8 7 8 9 9 8 8 8 9 11 13 15 15 15 15 15 16
9 9 7 8 7 7 6 6 4 5 4 4 4 5 6 6 7 6 6 6 6 6 4 4 3 7 6 6 6 4 4 7 7 7 11 12 11 15 14 13 13 14 16
12 12 12 11 10 10 9 9 10 10 12 12 12 12 11 10 10 8 7 6 4 6 6 5 2 3 3 3 4 4 7 5 8 12 14 13 9 10 13 14 15 15 15
16 15 15 15 13 12 11 12 15 16 17 18 17 16 14 12 10 8 6 7 6 4 2 4 3 2 2 1 3 2 4 8 13 9 4 16 13 12 11 14 15 14 13
18 19 20 17 17 17 15 14 16 17 17 16 15 14 13 11 9 8 8 5 5 4 2 2 1 0 4 2 1 3 7 8 3 3 18 22 15 16 16 15 15 15 17
20 20 20 19 20 17 15 14 14 16 15 13 11 9 7 5 4 5 4 1 2 0 1 3 4 5 4 3 4 6 6 8 10 14 17 14 16 17 17 20 22 18 16
18 18 18 19 19 16 15 14 13 13 12 10 9 8 8 7 7 5 1 1 1 1 3 4 5 6 8 7 7 9 10 12 16 11 5 6 12 19 28 24 9 7 8
16 15 15 16 17 15 14 13 12 12 12 11 10 8 5 5 3 3 2 2 3 2 3 2 3 5 6 7 7 9 11 10 7 4 8 5 7 25 23 12 11 4 16
17 15 15 14 14 14 11 7 6 7 7 5 4 4 3 2 3 3 4 2 2 2 3 4 3 4 4 4 5 8 8 7 6 6 2 15 11 12 11 9 8 27 25
Wind_Direction
197 203 212 217 215 216 216 209 207 202 202 212 212 205 210 201 201 200 208 214 214 195 180 175 169 167 164 159 149 138 131 127 123 117 113 109 102 93 84 75 72 68 63
204 217 213 213 207 206 208 211 212 211 210 214 220 221 213 202 216 218 217 221 221 216 195 185 180 181 178 172 162 152 143 138 134 128 120 113 107 97 92 82 73 64 57
215 214 218 217 215 211 213 220 223 230 236 217 224 227 223 223 216 229 229 222 218 224 216 194 191 189 188 183 180 172 164 157 155 151 140 128 114 103 94 86 72 61 46
217 219 219 220 215 211 214 221 219 224 225 220 225 226 228 231 233 232 234 223 224 222 222 210 200 199 200 195 191 190 181 176 175 169 165 153 143 130 111 97 73 57 50
225 224 224 226 220 218 221 222 224 226 226 222 223 228 226 228 227 224 231 234 226 226 226 222 216 210 204 203 202 199 195 184 184 184 183 191 191 175 149 76 24 346 340
227 228 229 229 229 229 231 227 227 226 231 230 224 228 233 232 231 230 226 234 231 228 226 225 220 220 215 205 208 207 201 195 191 194 194 204 217 223 245 279 301 305 307
227 226 229 231 230 235 235 231 231 230 228 228 222 228 234 234 235 237 237 228 230 231 226 220 225 226 222 217 207 209 208 205 203 206 212 213 221 228 248 276 294 304 308
228 228 231 231 232 231 235 237 227 226 231 223 206 175 246 252 238 236 235 235 229 226 228 227 225 224 225 222 214 207 206 209 213 210 208 203 217 237 268 283 289 293 296
226 227 231 234 236 233 232 234 235 227 223 219 216 197 156 226 224 235 234 233 234 230 227 230 228 225 228 231 224 220 220 218 212 206 209 209 218 249 278 289 296 297 298
242 232 233 238 239 241 238 240 241 238 226 220 219 220 226 174 197 301 242 237 235 236 235 230 229 228 227 225 225 229 232 221 217 220 223 217 229 259 279 289 291 295 297
243 247 252 254 253 246 247 249 252 245 244 230 226 229 231 227 228 168 265 262 225 232 238 234 229 228 224 215 212 210 219 235 220 214 246 264 272 271 285 289 291 293 291
241 246 249 256 256 257 257 254 252 257 250 246 234 232 226 218 229 206 210 235 233 206 222 225 219 214 208 197 201 196 188 190 230 254 272 276 287 284 288 291 291 291 289
236 252 248 243 244 259 263 268 270 271 271 261 249 239 237 234 229 222 223 181 163 186 193 206 204 193 178 183 183 215 230 237 247 245 268 275 276 283 282 292 289 286 285
114 221 226 239 245 246 273 278 276 278 277 279 274 254 243 241 240 236 226 193 178 205 214 192 197 191 207 210 216 233 244 245 239 248 251 269 280 283 291 292 286 284 287
127 161 173 195 225 267 275 275 274 281 281 280 275 263 245 236 233 229 230 226 221 185 219 219 197 215 213 216 228 241 246 248 248 252 262 275 280 286 287 286 285 287 290
125 148 191 234 243 240 258 268 272 279 285 282 287 275 258 235 232 233 240 238 236 211 213 211 212 226 219 227 238 240 245 257 260 264 271 278 284 286 281 284 288 288 288
72 111 205 260 287 337 303 262 258 275 279 281 285 276 258 243 233 222 221 214 219 208 150 176 208 219 221 220 230 246 252 257 265 272 276 283 284 284 288 289 290 289 289
76 91 90 81 74 99 105 101 100 25 304 294 28 328 201 201 159 152 156 150 151 163 145 131 193 208 213 222 230 241 255 269 282 287 287 291 292 289 288 291 290 289 289
84 88 93 90 90 89 98 101 116 112 117 101 95 102 100 108 108 110 111 114 121 123 123 169 143 196 199 208 215 222 289 285 294 297 287 287 283 290 294 290 291 292 291
86 84 86 86 87 89 89 95 96 102 105 102 100 103 107 113 115 114 112 105 85 82 94 119 143 169 156 217 248 290 271 276 291 293 292 293 298 295 293 292 295 295 294
95 94 92 87 87 89 94 106 110 111 110 106 102 98 95 97 98 97 101 99 93 84 106 124 179 92 88 266 258 260 274 304 310 291 296 315 314 305 304 313 312 306 301
100 95 88 87 86 85 96 106 111 113 111 111 108 108 116 119 110 111 114 131 143 123 182 123 123 167 252 287 287 300 317 323 319 311 320 313 314 318 327 325 320 305 299
101 101 103 98 96 95 95 101 107 108 108 106 103 102 98 91 84 78 82 139 185 164 5 243 243 245 250 269 292 299 298 304 290 299 309 308 322 319 331 323 316 303 299
109 113 110 109 104 96 95 94 97 98 98 95 90 81 75 67 63 57 355 294 174 251 238 247 264 269 272 274 281 291 294 299 304 312 320 275 318 321 324 330 341 334 329
116 119 117 112 104 96 88 85 88 88 88 90 83 69 66 97 55 25 305 201 221 213 227 237 273 289 282 271 271 279 284 302 323 290 322 312 311 325 327 329 329 325 315
115 115 107 103 98 92 78 86 84 90 91 94 105 106 70 55 10 352 327 292 265 275 304 282 279 285 280 277 266 270 285 286 293 308 328 343 320 2 321 296 287 315 320